Content
SEND FEEDBACK

Daily
Averages
Monthly
Summary
United Kingdom

COUNTY OAK, ENGLAND


Home > Europe > United Kingdom > England
Elevation: 203 feet     Latitude: 51 01N     Longitude: 000 10W

WEATHER
 
SELECT A DAY
Number of Records: 292,972;   Date Range: 7/1/96 - 7/29/14
 
SHARE

PRINT THIS DATA

[ ← Previous Day ]
WEATHER ALMANAC - JULY 4, 2014
[ Next Day → ]
[ °C ]   °F
Weather ElementAverageHighLow
Temperature66.6 °F75.2 °F (11:50 am)57.2 °F (2:20 am)
Dewpoint56.7 °F60.8 °F (11:20 pm)53.6 °F (3:20 pm)
Humidity72.9 %100 % (5:20 am)47 % (3:20 pm)
Barometer29.79 in30.01 in (12:50 am)29.65 in (11:20 pm)
Wind Speed8.7 mph15 mph (2:50 pm)
Weather ElementAverage
Visibility5.1 mi
Wind DirectionSSE (174 °)

Weather ElementTotal
Precipitation---
Cooling Degree Days1.2 (Base 65)
Growing Degree Days16.2 (Base 50)
Averaged from 47 records on July 4, 2014
WEATHER CONDITIONS BREAKOUT
WIND DIRECTION BREAKOUT
WEATHER BY HOUR - JULY 4, 2014
[ °C ]   °F
Local TimeTemperatureDewpointHumidityBarometerVisibilityWind DirectionWind SpeedGust SpeedPrecipitationEventsConditions
12:50 AM59.0 °F55.4 °F88 %30.01 inSouth (190°)5.8 mphClear
1:20 AM59.0 °F55.4 °F88 %30.01 inSouth (190°)5.8 mphClear
1:50 AM59.0 °F55.4 °F88 %29.98 inSouth (190°)5.8 mphClear
2:20 AM57.2 °F55.4 °F94 %29.98 inCalmClear
2:50 AM57.2 °F55.4 °F94 %29.95 in5.0 miVariable3.5 mph
3:20 AM59.0 °F57.2 °F94 %29.95 in4.3 miVariable3.5 mph
3:50 AM59.0 °F57.2 °F94 %29.92 in3.7 miSouth (180°)4.6 mph
4:20 AM59.0 °F57.2 °F94 %29.92 in2.5 miVariable2.3 mphHaze
4:50 AM57.2 °F55.4 °F94 %29.92 in2.5 miVariable2.3 mphHaze
5:20 AM57.2 °F57.2 °F100 %29.92 in2.5 miVariable2.3 mphHaze
5:50 AM59.0 °F57.2 °F94 %29.89 in3.1 miVariable3.5 mphHaze
6:20 AM59.0 °F57.2 °F94 %29.89 in3.1 miSSE (160°)4.6 mphHaze
6:50 AM59.0 °F57.2 °F94 %29.89 in6.2 miSouth (170°)4.6 mphPartly Cloudy
7:20 AM60.8 °F59.0 °F94 %29.89 in6.2 miSouth (180°)4.6 mphScattered Clouds
7:50 AM62.6 °F57.2 °F82 %29.86 in6.2 miSouth (170°)5.8 mphPartly Cloudy
8:20 AM64.4 °F57.2 °F77 %29.86 in6.2 miSouth (170°)8.1 mphPartly Cloudy
8:50 AM68.0 °F57.2 °F68 %29.83 inSouth (190°)8.1 mphClear
9:20 AM69.8 °F55.4 °F60 %29.83 inSW (220°)9.2 mphClear
9:50 AM71.6 °F55.4 °F57 %29.83 inSSW (210°)10.4 mphClear
10:20 AM71.6 °F55.4 °F57 %29.80 inSouth (190°)8.1 mphClear
10:50 AM73.4 °F57.2 °F57 %29.80 inSouth (190°)9.2 mphClear
11:20 AM73.4 °F55.4 °F53 %29.80 inSW (230°)11.5 mphClear
11:50 AM75.2 °F55.4 °F50 %29.77 in6.2 miSSW (210°)12.7 mphPartly Cloudy
12:20 PM75.2 °F57.2 °F53 %29.77 in6.2 miSSW (210°)11.5 mphPartly Cloudy
12:50 PM75.2 °F57.2 °F53 %29.77 inSSW (200°)12.7 mphClear
1:20 PM75.2 °F57.2 °F53 %29.74 in6.2 miSSW (200°)12.7 mphPartly Cloudy
1:50 PM75.2 °F57.2 °F53 %29.74 in6.2 miSSW (200°)13.8 mphPartly Cloudy
2:20 PM75.2 °F57.2 °F53 %29.74 inSW (230°)12.7 mphClear
2:50 PM75.2 °F55.4 °F50 %29.71 inSSW (210°)15.0 mphClear
3:20 PM75.2 °F53.6 °F47 %29.71 inSW (220°)15.0 mphClear
3:50 PM75.2 °F53.6 °F47 %29.71 inSSW (210°)11.5 mphClear
4:20 PM75.2 °F55.4 °F50 %29.68 inSW (220°)12.7 mphClear
4:50 PM73.4 °F53.6 °F50 %29.68 inSW (230°)11.5 mphClear
5:20 PM73.4 °F53.6 °F50 %29.68 inSW (230°)13.8 mphClear
5:50 PM71.6 °F57.2 °F60 %29.68 inSW (230°)11.5 mphClear
6:20 PM69.8 °F57.2 °F64 %29.68 in6.2 miSW (220°)11.5 mphPartly Cloudy
6:50 PM68.0 °F57.2 °F68 %29.68 inSW (230°)10.4 mphClear
7:20 PM68.0 °F57.2 °F68 %29.68 in6.2 miSSW (210°)11.5 mphPartly Cloudy
7:50 PM66.2 °F57.2 °F73 %29.68 in6.2 miSSW (210°)8.1 mphPartly Cloudy
8:20 PM66.2 °F57.2 °F73 %29.68 in6.2 miSW (230°)10.4 mphPartly Cloudy
8:50 PM66.2 °F57.2 °F73 %29.68 in6.2 miSW (220°)8.1 mphPartly Cloudy
9:20 PM64.4 °F57.2 °F77 %29.68 in6.2 miSW (220°)11.5 mphRainLight Rain
9:50 PM64.4 °F59.0 °F83 %29.68 in6.2 miSSW (210°)9.2 mphRainLight Rain
10:20 PM62.6 °F59.0 °F88 %29.68 in6.2 miSSW (200°)9.2 mphRainLight Rain
10:50 PM62.6 °F59.0 °F88 %29.68 in5.6 miSSW (200°)9.2 mphRainLight Rain
11:20 PM62.6 °F60.8 °F94 %29.65 in2.8 miSSW (200°)9.2 mphRainLight Rain
11:50 PM62.6 °F60.8 °F94 %29.65 in2.8 miSSW (200°)11.5 mphLight Drizzle
Hourly data recorded from EGKK, located miles away from County Oak, England







STORIES FROM OUR PARTNERS